Погода в Бирзаи

Погода в Бирзаи : погода сейчас, прогноз погоды и архив. Всё, что Вы хотите узнать о погоде в Бирзаи!

Поиск расширенной информации на нашем сайте:

Другие новости

Новости СМИ2

Главная страница сайта

Новости сайта

02.10.2013

Напоминаем, что на нашем новом сайте вы можете получить высокодетализированные прогнозы погоды по пунктам России, СНГ и мира (включающие важные для авиации метеовеличины, такие как направление и скорость ветра, видимость, явления погоды, количество и форма облачности, нижняя и верхняя граница облачности), а также ознакомиться с разнообразными материалами по авиационной метеорологии и подборкой полезных ссылок на эту тему.

Сайт Метеоцентр.Азия посвящён разработке технологий оптимизации авиаметеорологического обслуживания, включая проектирование и перспективное создание нескольких автоматизированных авиаметеорологических систем:
- система выпуска высокодетальных прогностических карт явлений погоды для нижнего воздушного пространства по России и ближнему зарубежью;
- система верификации прогнозов TAF (выпускаемых синоптиками официальных АМСГ РФ и ближнего зарубежья) и AUTOTAF (выпускаемых сайтом Метеоцентр.Азия) - выявление ошибок, онлайн-сопоставление с фактической погодой METAR, автоматическое внесение коррективов в прогнозы при резком отклонении фактической погоды от прогноза, подсчёт оправдываемости прогнозов по элементам и в целом;
- система обработки, анализа и отображения авиаметеорологической информации для применения провайдерами метеорологической информации.


Погода в Бирзаи - сегодня

Время (UTC), дата Ветер
(°,м/с) 
Видим.   Явления Облачность Т
(°С)
Тd
(°С)
f(%) Тe
(°С)
Pmin
(гПа)
dP
(гПа)
Po
(мм)
O2
(г/м3)
Тmin Tmax R s Состояние
почвы
21 21.03.17 200 (Ю) 2-4{05}  20000 м    8/0 верхняя 
[Cs]
+3.6 +0.1 78 +3  1008.4  1.8  751  298           
00 22.03.17 190 (Ю) 2-4{05}  20000 м    10/0 средняя 
[Ac As]
+2.8 -0.5 79 +2  1009.2  0.8  751  300           
03 22.03.17 250 (З) 2-3{14}  11000 м  слаб. дождь  10/10 700 м 
[Ns]
+3.1 +1.5 89 +3  1009.6  0.3  751  298           
06 22.03.17 230 (ЮЗ) 2-5{05}  20000 м  {дождь}  9/0 средняя 
[Ac As]
+3.5 +2.5 93 +3  1011.5  753  298  +2.3      влажная 
09 22.03.17 250 (З) 6-10{10}  19000 м    4/0 верхняя 
[St|Cc]
+5.7 +0.6 70 +3  1013.1  1.6  754  297           
12 22.03.17 250 (З) 6-13{14}  19000 м    8/5 1440 м верхняя 
[Cu med, cong|Ci sp]
+8 -1.2 52 +6  1014.2  1.1  755  296           
15 22.03.17 270 (З) 6-12{14}  19000 м    3/3 1500 м 
[Cu hum]
+8.1 -3 45 +6  1015.4  1.2  756  295           
18 22.03.17 240 (ЮЗ) 2-3{12}  17000 м    ясно 
+4.2 -1.9 64 +4  1018.1  2.6  758  300    +9.3       
21 22.03.17 230 (ЮЗ) 2-5{05}  19000 м    ясно 
+2.1 -2.2 73 +1  1019.6  1.4  759  303           
00 23.03.17 230 (ЮЗ) 3-5{07}  19000 м    ясно 
+0.9 -1.4 85 -1  1020.9  1.3  760  305           
03 23.03.17 250 (З) 3-6{07}  20000 м    ясно 
+0.5 -0.9 90 -1  1022.2  1.3  761  305  +0.3         
06 23.03.17 230 (ЮЗ) 3-7{07}  19000 м    ясно 
+1.9 -0 87 1023.3  1.1  762  304  +0        влажная 
09 23.03.17 260 (З) 4-8{08}  19000 м    1/0 верхняя 
[Ci fib]
+6.7 +1.5 69 +5  1024.5  1.4  763  299           
12 23.03.17 280 (З) 5-8{09}  20000 м    3/1 1000 м верхняя 
[Cu hum|Cs]
+9.7 -1.7 45 +8  1024.2  -0.3  762  297           
15 23.03.17 270 (З) 4-8{10}  20000 м    6/3 1000 м верхняя 
[Cu hum|Cs]
+10.4 -1.9 42 +10  1023.3  -0.9  762  295           
18 23.03.17 270 (З) 1-2{08}  3000 м  дым  8/0 верхняя 
[Cs]
+6.7 +0.3 64 +8  1023.6  0.2  762  299    +10.8       
21 23.03.17 тихо () -2{03}  5000 м  дым  10/0 средняя 
[Ac As]
+4.4 +0.8 77 +4  1023.9  0.3  762  301           
00 24.03.17 тихо () -0{02}  10 км    10/0 средняя 
[Ac As]
+3 +0.6 84 +3  1023.3  -0.7  762  303           
03 24.03.17 тихо () -2{02}  14000 м    10/0 средняя 
[Ac As]
+1.2 +0.1 92 +1  1022.8  -0.5  761  304           
06 24.03.17 290 (З) 1-3{03}  7000 м  дымка  3/0 средняя 
[Ac trans]
+2.1 +1.1 93 +3  1023.1  0.3  761  303  +0.1        влажная 
09 24.03.17 310 (СЗ) 4-7{07}  19000 м    3/1 1000 м верхняя 
[Cu hum|Cc]
+5.8 -1.5 59 +4  1023.8  0.8  762  300           
12 24.03.17 320 (СЗ) 6-11{11}  19000 м    3/3 1500 м 
[Cu Sc]
+7.1 -9.4 30 +5  1024.4  0.6  763  300           
15 24.03.17 320 (СЗ) 5-10{14}  20000 м    3/1 1000 м верхняя 
[Sc|Ci fib]
+5.8 -8.9 34 +4  1024.8  0.4  763  301           
18 24.03.17 тихо () -3{12}  10 км    ясно 
+1.8 -8.1 48 +2  1025.5  0.6  763  306    +7.6       
21 24.03.17 тихо () -0{03}  4700 м  дым  1/0 средняя 
[Ac trans]
-2.3 -6.5 73 -2  1025.1  -0.5  763  310           
Время (UTC), дата Ветер
(°,м/с) 
Видим.   Явления Облачность Т
(°С)
Тd
(°С)
f(%) Тe
(°С)
Pmin
(гПа)
dP
(гПа)
Po
(мм)
O2
(г/м3)
Тmin Tmax R s Состояние
почвы

Для получения пояснительной информации подведите курсор к названию столбца.

ПОГОДА в Бирзаи - архив

Всё, что Вы хотите узнать о погоде в Бирзаи - удобно и подробно!

Выберите нужную дату (начиная с 1 января 2015* года) и нажмите кнопку "Найти".
Будут отображены архивные сводки погоды по пункту Бирзаи, начиная с указанной даты.


Отображать данные в формате CSV (для использования в таблицах Excel)


Внимание! Наш архив погоды предназначен исключительно для личного некоммерческого использования в познавательных целях. Если Вам необходимы официальные справки о состоянии погоды (для производственных, юридических, коммерческих и т.п. целей), обращайтесь в органы Росгидромета.

*Примечание: данная дата относится к архиву по метеостанциям СССР (Россия, СНГ, Балтия).
Архив по метеостанциям Зарубежной Европы и Азии (кроме Китая) хранится 10 дней, по другим регионам земного шара (Китай, Африка, Америка, Австралия, Океания) - 1 день.

Бирзаи - район местоположения метеостанции


Название, широта, долгота, высота метеостанции:
Бирзаи 56.2°ш. 24.8°д. 62 м над ур. моря [Литва]

Дополнительная информация

В oтличие oт бoльшинства пoгoдных сайтoв мы публикуем пoдрoбную метеoинфoрмацию в детальнoм прoфессиoнальнoм фoрмате.

Характеристики температуры и влажнoсти вoздуха измеряются на высoте 2 м в тени вдали oт зданий и деревьев.
Скoрoсть ветра измеряется на высoте 10 м (на урoвне рoста челoвека скoрoсть ветра ниже в 1.5-2 раза). Если метеoстанция нахoдится в гoрoде или в лесу, тo скoрoсть ветра занижена на 2-4 м/с пo сравнению с oткрытым местoм. Скoрoсть ветра над акватoриями крупных рек и oзёр, а также на вершинах хoлмoв на 2-5 м/с выше, чем в oбычных услoвиях.
Атмoсфернoе давление в разных тoчках местнoсти мoжет значительнo oтличаться oт давления на метеoстанции, в зависимoсти oт услoвий рельефа (при пoдъёме на 10 м давление пoнижается примернo на 1 мм рт.ст.).